Total_Precipitation_Accumulation
0.05 0.05 0.06 0.06 0.05 0.05 0.06 0.06 0.05 0.03 0.03 0.02 0.02 0.02 0.03 0.02 0.02 0.02 0.01 0.01 0.01 0.02 0.02 0.01 0.02 0.02 0.01 0.02 0.01 0.00 0.00 0.00 0.00 0.00 0.00 0.00 0.00 0.00 0.00 0.00 0.00 0.00 0.00 0.00 0.00 0.00 0.01 0.00 0.00 0.00 0.00 0.00 0.00 0.14 0.26 0.10 0.49 1.13 2.70 3.85 4.01 3.92 3.89 2.10 2.86 2.25 2.68 3.83 2.26 1.88 2.03 2.29 2.03 1.33 1.62 1.47 1.31 1.55 0.62 0.86 0.14 0.10 0.22 0.05 0.01 0.02 0.00 0.02
0.05 0.06 0.05 0.04 0.04 0.04 0.05 0.04 0.03 0.03 0.03 0.03 0.03 0.02 0.02 0.02 0.02 0.02 0.02 0.02 0.02 0.02 0.01 0.03 0.02 0.02 0.02 0.01 0.00 0.00 0.01 0.00 0.00 0.00 0.00 0.00 0.00 0.00 0.00 0.00 0.00 0.00 0.00 0.00 0.00 0.00 0.00 0.00 0.00 0.00 0.00 0.00 0.00 0.08 0.05 0.92 0.25 0.73 1.59 3.10 4.08 2.88 2.71 1.84 1.98 1.42 3.31 3.40 2.29 2.40 1.93 2.47 2.31 1.91 1.01 1.51 1.33 1.13 0.53 0.81 0.88 0.49 0.17 0.04 0.02 0.01 0.01 0.03
0.06 0.05 0.05 0.03 0.03 0.03 0.03 0.03 0.02 0.03 0.03 0.03 0.02 0.03 0.02 0.01 0.01 0.02 0.03 0.02 0.02 0.01 0.02 0.02 0.03 0.02 0.00 0.01 0.00 0.00 0.01 0.00 0.00 0.00 0.00 0.00 0.00 0.00 0.00 0.00 0.00 0.00 0.00 0.00 0.00 0.00 0.00 0.00 0.00 0.00 0.00 0.00 0.00 0.07 0.09 0.56 0.50 0.58 0.85 2.13 1.77 1.34 2.01 2.03 1.76 1.34 1.52 1.81 2.62 1.80 1.62 2.65 1.92 1.65 1.06 2.01 0.93 0.61 1.09 0.80 0.72 0.71 0.25 0.14 0.07 0.03 0.04 0.06
0.05 0.05 0.03 0.02 0.03 0.03 0.03 0.02 0.02 0.02 0.03 0.03 0.02 0.02 0.01 0.01 0.01 0.02 0.02 0.02 0.01 0.02 0.02 0.02 0.02 0.01 0.01 0.00 0.00 0.01 0.00 0.00 0.00 0.00 0.00 0.00 0.00 0.00 0.00 0.00 0.00 0.00 0.00 0.00 0.00 0.00 0.00 0.00 0.00 0.00 0.00 0.00 0.01 0.03 0.01 0.03 0.80 0.57 0.72 1.81 1.02 0.92 2.22 1.75 1.84 1.67 1.22 1.77 2.13 1.95 1.19 1.81 1.91 2.23 1.79 1.64 1.12 1.53 1.31 0.99 0.70 0.73 0.14 0.07 0.05 0.05 0.04 0.07
0.05 0.04 0.03 0.02 0.02 0.03 0.02 0.02 0.02 0.03 0.04 0.03 0.02 0.02 0.01 0.01 0.02 0.02 0.01 0.01 0.02 0.01 0.02 0.02 0.01 0.01 0.00 0.00 0.00 0.00 0.00 0.00 0.00 0.00 0.00 0.00 0.00 0.00 0.00 0.00 0.00 0.00 0.00 0.00 0.00 0.00 0.00 0.00 0.00 0.00 0.00 0.01 0.00 0.01 0.00 0.01 0.01 0.04 0.47 0.66 0.89 1.07 1.94 1.15 1.30 0.92 0.93 1.54 1.97 1.81 1.90 2.63 1.22 1.75 2.20 3.12 3.84 1.90 2.49 0.50 0.58 0.28 0.20 0.11 0.03 0.04 0.02 0.06
0.05 0.04 0.03 0.03 0.02 0.02 0.03 0.03 0.03 0.04 0.04 0.03 0.02 0.01 0.02 0.02 0.01 0.01 0.01 0.02 0.02 0.02 0.01 0.01 0.01 0.00 0.00 0.00 0.00 0.01 0.00 0.00 0.00 0.00 0.00 0.00 0.00 0.00 0.00 0.00 0.00 0.00 0.00 0.00 0.00 0.00 0.00 0.00 0.00 0.00 0.00 0.00 0.03 0.01 0.01 0.00 0.03 0.50 0.24 0.21 0.25 0.52 0.94 1.24 1.32 0.78 0.99 1.60 1.56 2.28 2.69 1.59 1.98 2.97 2.01 1.97 3.48 2.01 1.10 0.48 0.20 0.11 0.08 0.02 0.01 0.02 0.03 0.03
0.04 0.03 0.03 0.02 0.03 0.03 0.03 0.03 0.03 0.03 0.03 0.02 0.02 0.01 0.02 0.02 0.00 0.01 0.02 0.02 0.01 0.01 0.01 0.01 0.01 0.01 0.00 0.00 0.00 0.00 0.00 0.00 0.00 0.00 0.00 0.00 0.00 0.00 0.00 0.00 0.00 0.00 0.00 0.00 0.00 0.00 0.00 0.00 0.00 0.00 0.00 0.00 0.00 0.00 0.00 0.00 0.03 0.00 0.51 0.14 0.23 0.22 0.64 0.99 1.90 1.58 2.45 2.64 2.56 2.54 1.50 1.93 2.40 2.49 1.77 2.08 1.11 0.96 0.81 0.41 0.47 0.08 0.02 0.00 0.02 0.03 0.03 0.01
0.04 0.02 0.02 0.02 0.03 0.03 0.03 0.02 0.02 0.02 0.01 0.02 0.02 0.02 0.01 0.01 0.01 0.01 0.01 0.01 0.01 0.01 0.01 0.01 0.01 0.00 0.00 0.00 0.00 0.00 0.00 0.00 0.00 0.00 0.00 0.00 0.00 0.00 0.00 0.00 0.00 0.00 0.00 0.00 0.00 0.00 0.00 0.00 0.00 0.00 0.00 0.01 0.00 0.00 0.01 0.03 0.01 0.37 0.80 0.51 0.40 0.23 0.53 0.97 1.75 3.08 2.73 2.80 3.03 2.60 1.88 2.19 2.39 2.52 1.27 2.33 1.26 0.60 0.87 0.47 0.50 0.15 0.03 0.02 0.03 0.02 0.03 0.04
0.03 0.03 0.02 0.02 0.03 0.03 0.03 0.02 0.02 0.01 0.01 0.01 0.01 0.01 0.01 0.01 0.01 0.01 0.01 0.01 0.01 0.01 0.01 0.01 0.01 0.00 0.01 0.01 0.00 0.00 0.00 0.00 0.00 0.00 0.00 0.00 0.00 0.00 0.00 0.00 0.00 0.00 0.00 0.00 0.00 0.00 0.00 0.00 0.00 0.00 0.01 0.00 0.00 0.00 0.00 0.05 0.78 0.08 0.10 0.24 0.48 0.46 0.43 1.32 1.39 1.85 1.95 2.93 2.88 2.51 2.50 2.60 1.87 1.80 2.35 2.41 1.00 0.86 0.69 0.54 0.40 0.16 0.02 0.02 0.02 0.03 0.02 0.02
0.02 0.02 0.02 0.03 0.03 0.03 0.02 0.02 0.02 0.01 0.01 0.02 0.01 0.01 0.01 0.01 0.01 0.01 0.01 0.01 0.01 0.01 0.01 0.01 0.00 0.00 0.00 0.00 0.00 0.00 0.00 0.00 0.00 0.00 0.00 0.00 0.00 0.00 0.00 0.00 0.00 0.00 0.00 0.00 0.00 0.00 0.00 0.00 0.00 0.00 0.00 0.00 0.00 0.00 0.00 0.06 0.34 0.01 0.05 0.12 0.33 0.63 0.75 0.75 1.40 1.31 2.14 3.05 2.75 2.93 2.51 2.36 2.43 1.56 3.15 1.17 1.00 0.77 0.62 0.59 0.56 0.39 0.11 0.05 0.01 0.02 0.03 0.02
0.02 0.01 0.01 0.02 0.02 0.02 0.02 0.02 0.02 0.02 0.02 0.01 0.01 0.01 0.01 0.01 0.01 0.01 0.01 0.00 0.00 0.00 0.01 0.01 0.00 0.01 0.00 0.00 0.00 0.00 0.00 0.00 0.00 0.00 0.00 0.00 0.00 0.00 0.00 0.00 0.00 0.00 0.00 0.00 0.00 0.00 0.00 0.00 0.00 0.00 0.00 0.00 0.00 0.01 0.00 0.11 0.01 0.04 0.26 0.16 0.32 0.82 1.14 1.07 1.23 1.42 2.03 3.24 3.38 2.60 3.07 2.44 2.37 1.48 3.31 1.58 0.78 0.87 0.85 0.68 0.40 1.05 0.68 0.24 0.09 0.04 0.04 0.02
0.01 0.01 0.01 0.01 0.02 0.02 0.01 0.02 0.02 0.01 0.01 0.01 0.01 0.01 0.01 0.01 0.01 0.00 0.01 0.00 0.00 0.01 0.01 0.00 0.01 0.00 0.00 0.00 0.00 0.00 0.00 0.00 0.00 0.00 0.00 0.00 0.00 0.00 0.00 0.00 0.00 0.00 0.00 0.00 0.00 0.00 0.00 0.00 0.00 0.00 0.00 0.00 0.00 0.00 0.11 0.00 0.06 0.32 0.22 0.67 0.62 0.59 1.13 1.27 1.36 2.19 1.70 2.47 3.57 3.68 3.22 2.68 1.62 2.32 1.64 0.85 0.80 1.38 1.11 0.95 1.00 0.40 0.38 0.07 0.04 0.03 0.03 0.04
0.01 0.01 0.02 0.01 0.01 0.02 0.02 0.02 0.02 0.02 0.01 0.01 0.01 0.01 0.01 0.01 0.01 0.01 0.00 0.00 0.00 0.00 0.02 0.01 0.01 0.00 0.00 0.00 0.00 0.00 0.00 0.00 0.00 0.00 0.00 0.00 0.00 0.00 0.00 0.00 0.00 0.00 0.00 0.00 0.00 0.00 0.00 0.00 0.00 0.00 0.00 0.00 0.00 0.03 0.17 0.16 0.05 0.16 0.60 1.02 0.64 0.96 1.41 1.27 1.75 2.09 1.54 2.15 2.21 3.16 3.27 2.73 2.52 1.95 1.30 0.90 1.29 1.24 1.45 1.63 1.01 0.73 0.43 0.42 0.17 0.04 0.05 0.03
0.01 0.01 0.01 0.01 0.01 0.01 0.02 0.02 0.02 0.02 0.01 0.01 0.01 0.01 0.01 0.01 0.00 0.00 0.00 0.00 0.00 0.00 0.00 0.00 0.00 0.00 0.00 0.00 0.00 0.00 0.00 0.00 0.00 0.00 0.00 0.00 0.00 0.00 0.00 0.00 0.00 0.00 0.00 0.00 0.00 0.00 0.00 0.00 0.00 0.00 0.00 0.00 0.00 0.00 0.01 0.01 0.04 0.36 1.00 0.54 1.44 1.05 1.95 0.71 1.37 1.92 2.37 2.12 2.57 1.37 3.27 3.82 2.75 1.65 1.40 1.33 1.37 1.32 1.42 1.33 0.96 1.21 0.92 0.58 0.27 0.08 0.08 0.05
0.01 0.01 0.01 0.01 0.02 0.01 0.01 0.02 0.02 0.01 0.01 0.01 0.01 0.01 0.01 0.00 0.00 0.00 0.00 0.00 0.00 0.00 0.00 0.00 0.00 0.00 0.00 0.00 0.00 0.00 0.00 0.00 0.00 0.00 0.00 0.00 0.00 0.00 0.00 0.00 0.00 0.00 0.00 0.00 0.00 0.00 0.00 0.00 0.00 0.00 0.00 0.00 0.00 0.00 0.00 0.04 0.35 0.29 0.35 0.72 0.52 0.33 1.67 1.09 0.84 0.76 1.73 1.50 1.67 1.19 2.35 2.91 2.46 2.46 1.29 1.10 1.63 2.28 2.03 1.35 1.39 1.06 0.51 0.68 0.85 0.15 0.09 0.15
0.00 0.01 0.01 0.01 0.02 0.01 0.01 0.01 0.01 0.01 0.01 0.01 0.01 0.01 0.00 0.00 0.00 0.00 0.00 0.00 0.00 0.00 0.01 0.00 0.00 0.00 0.00 0.00 0.00 0.00 0.00 0.00 0.00 0.00 0.00 0.00 0.00 0.00 0.00 0.00 0.00 0.00 0.00 0.00 0.00 0.00 0.00 0.00 0.00 0.00 0.00 0.00 0.00 0.00 0.13 0.10 0.48 0.26 0.11 0.27 0.31 0.42 0.99 1.33 0.67 0.95 1.39 0.73 1.55 1.67 2.88 2.30 2.86 2.48 2.11 1.63 1.99 1.88 2.18 1.56 0.98 0.77 0.85 0.63 0.68 0.28 0.12 0.13
0.00 0.00 0.01 0.01 0.01 0.01 0.01 0.00 0.01 0.01 0.01 0.01 0.00 0.00 0.00 0.00 0.00 0.00 0.00 0.00 0.01 0.00 0.00 0.00 0.00 0.00 0.00 0.00 0.00 0.00 0.00 0.00 0.00 0.00 0.00 0.00 0.00 0.00 0.00 0.00 0.00 0.00 0.00 0.00 0.00 0.00 0.00 0.00 0.00 0.00 0.00 0.00 0.00 0.00 0.05 0.18 0.12 0.09 0.03 0.15 0.16 0.36 0.34 1.07 0.78 1.23 1.10 0.81 1.52 1.38 1.87 2.40 1.76 1.54 1.68 1.42 1.48 1.82 2.25 1.78 1.27 0.89 1.14 0.52 0.47 0.24 0.43 0.19
0.00 0.00 0.00 0.01 0.01 0.02 0.01 0.00 0.01 0.01 0.01 0.00 0.00 0.00 0.00 0.00 0.00 0.00 0.00 0.00 0.00 0.00 0.00 0.00 0.00 0.00 0.00 0.00 0.00 0.00 0.00 0.00 0.00 0.00 0.00 0.00 0.00 0.00 0.00 0.00 0.00 0.00 0.00 0.00 0.00 0.00 0.00 0.00 0.00 0.00 0.00 0.00 0.00 0.00 0.04 0.14 0.05 0.04 0.06 0.12 0.37 0.54 0.32 0.88 0.65 0.84 0.68 0.77 0.99 1.01 1.36 2.39 2.08 1.60 1.16 1.05 1.26 1.55 1.56 1.79 1.71 1.11 0.78 0.43 1.00 0.75 0.73 0.72
0.01 0.00 0.00 0.01 0.01 0.02 0.01 0.00 0.00 0.01 0.01 0.00 0.00 0.00 0.00 0.00 0.00 0.00 0.00 0.00 0.00 0.00 0.00 0.00 0.00 0.00 0.00 0.00 0.00 0.00 0.00 0.00 0.00 0.00 0.00 0.00 0.00 0.00 0.00 0.00 0.00 0.00 0.00 0.00 0.00 0.00 0.00 0.00 0.00 0.00 0.00 0.00 0.00 0.01 0.01 0.10 0.01 0.02 0.03 0.19 0.15 0.32 0.87 0.56 0.59 0.25 0.15 0.66 1.31 1.04 1.28 2.02 1.77 1.62 1.43 1.40 1.01 1.29 2.20 1.90 2.02 0.95 1.06 0.54 0.66 1.07 0.50 0.54
0.01 0.01 0.00 0.00 0.00 0.02 0.01 0.00 0.00 0.01 0.02 0.00 0.00 0.00 0.00 0.00 0.00 0.00 0.00 0.00 0.00 0.00 0.00 0.00 0.00 0.00 0.00 0.00 0.00 0.00 0.00 0.00 0.00 0.00 0.00 0.00 0.00 0.00 0.00 0.00 0.00 0.00 0.00 0.00 0.00 0.00 0.00 0.00 0.00 0.00 0.00 0.00 0.00 0.00 0.00 0.00 0.01 0.00 0.00 0.07 0.27 0.44 0.34 0.45 0.55 0.34 0.49 0.79 1.05 1.03 0.92 1.38 1.83 1.31 1.41 1.03 1.21 2.07 1.97 1.32 1.33 1.28 0.81 0.66 0.71 0.72 0.72 0.52
0.00 0.00 0.00 0.00 0.00 0.00 0.01 0.00 0.00 0.01 0.03 0.00 0.00 0.00 0.00 0.00 0.00 0.00 0.00 0.00 0.00 0.00 0.00 0.00 0.00 0.00 0.00 0.00 0.00 0.00 0.00 0.00 0.00 0.00 0.00 0.00 0.00 0.00 0.00 0.00 0.00 0.00 0.00 0.00 0.00 0.00 0.00 0.00 0.00 0.00 0.00 0.00 0.00 0.00 0.00 0.00 0.00 0.01 0.03 0.11 0.49 0.21 0.52 0.52 0.53 0.86 1.21 1.31 1.57 0.65 1.17 1.15 1.62 2.00 1.42 1.45 1.17 1.50 1.95 2.08 1.63 1.00 0.87 0.84 0.83 0.70 1.09 1.00
0.00 0.00 0.00 0.00 0.00 0.00 0.00 0.00 0.00 0.01 0.02 0.00 0.00 0.00 0.00 0.00 0.00 0.00 0.00 0.00 0.00 0.00 0.00 0.00 0.00 0.00 0.00 0.00 0.00 0.00 0.00 0.00 0.00 0.00 0.00 0.00 0.00 0.00 0.00 0.00 0.00 0.00 0.00 0.00 0.00 0.00 0.00 0.00 0.00 0.00 0.00 0.00 0.00 0.00 0.00 0.00 0.00 0.00 0.03 0.28 0.24 0.52 0.53 0.48 0.52 0.50 1.91 1.14 1.86 1.19 1.34 1.16 1.49 1.88 2.25 1.24 0.82 0.81 1.18 1.81 2.29 1.41 1.17 0.81 1.00 0.85 1.82 0.95
0.00 0.00 0.00 0.00 0.00 0.00 0.00 0.00 0.00 0.02 0.00 0.00 0.00 0.00 0.00 0.00 0.00 0.00 0.00 0.00 0.00 0.00 0.00 0.00 0.00 0.00 0.00 0.00 0.00 0.00 0.00 0.00 0.00 0.00 0.00 0.00 0.00 0.00 0.00 0.00 0.00 0.00 0.00 0.00 0.00 0.00 0.00 0.00 0.00 0.00 0.00 0.00 0.00 0.00 0.00 0.00 0.00 0.00 0.03 0.04 0.19 0.14 0.19 0.70 0.69 0.18 0.78 0.49 0.85 1.04 1.11 1.76 2.41 2.18 1.83 2.11 1.05 1.79 1.25 1.51 2.35 2.32 2.12 0.90 0.55 0.98 0.86 0.88
0.00 0.01 0.00 0.00 0.00 0.00 0.00 0.00 0.02 0.01 0.00 0.00 0.00 0.00 0.00 0.00 0.00 0.00 0.00 0.00 0.00 0.00 0.00 0.00 0.00 0.00 0.00 0.00 0.00 0.00 0.00 0.00 0.00 0.00 0.00 0.00 0.00 0.00 0.00 0.00 0.00 0.00 0.00 0.00 0.00 0.00 0.00 0.00 0.00 0.00 0.00 0.00 0.00 0.00 0.00 0.00 0.00 0.00 0.01 0.02 0.05 0.04 0.12 0.03 0.48 0.31 0.75 0.58 0.43 1.18 1.10 2.52 2.31 2.10 1.86 2.10 1.89 1.92 1.66 1.55 1.96 1.90 2.00 1.05 0.96 1.14 1.08 0.97
0.01 0.01 0.01 0.00 0.00 0.01 0.00 0.01 0.00 0.00 0.00 0.00 0.00 0.00 0.00 0.00 0.00 0.00 0.00 0.00 0.00 0.00 0.00 0.00 0.00 0.00 0.00 0.00 0.00 0.00 0.00 0.00 0.00 0.00 0.00 0.00 0.00 0.00 0.00 0.00 0.00 0.00 0.00 0.00 0.00 0.00 0.00 0.00 0.00 0.00 0.00 0.00 0.00 0.00 0.00 0.00 0.00 0.00 0.00 0.00 0.00 0.01 0.23 0.01 0.11 0.30 0.35 0.70 0.58 0.53 0.99 1.35 1.76 1.35 1.00 1.34 1.57 1.53 1.23 0.98 1.11 1.65 1.88 2.13 1.21 0.64 0.80 1.08
0.01 0.01 0.01 0.00 0.01 0.00 0.01 0.00 0.00 0.00 0.00 0.00 0.00 0.00 0.00 0.00 0.00 0.00 0.00 0.00 0.00 0.00 0.00 0.00 0.00 0.00 0.00 0.00 0.00 0.00 0.00 0.01 0.00 0.00 0.00 0.00 0.00 0.00 0.00 0.00 0.00 0.00 0.00 0.00 0.00 0.00 0.00 0.00 0.00 0.00 0.00 0.00 0.00 0.00 0.00 0.00 0.01 0.00 0.00 0.00 0.00 0.00 0.01 0.10 0.55 1.03 0.19 0.33 0.88 0.40 0.52 1.09 0.82 1.41 1.05 0.85 0.90 1.06 1.64 1.23 1.05 1.29 1.64 1.32 1.25 1.51 0.94 1.25
0.00 0.00 0.01 0.01 0.01 0.01 0.00 0.00 0.00 0.00 0.00 0.00 0.00 0.00 0.00 0.00 0.00 0.00 0.00 0.09 0.03 0.00 0.00 0.00 0.00 0.00 0.00 0.00 0.00 0.00 0.02 0.03 0.00 0.00 0.00 0.00 0.00 0.00 0.00 0.00 0.00 0.00 0.00 0.00 0.00 0.00 0.00 0.00 0.00 0.00 0.00 0.00 0.00 0.00 0.00 0.00 0.00 0.00 0.00 0.00 0.01 0.00 0.05 0.14 0.14 0.17 0.10 0.01 0.51 0.25 0.23 0.39 0.67 0.72 0.50 0.60 0.57 0.60 0.95 1.04 1.22 1.21 1.40 1.40 1.17 0.76 0.70 0.62
0.00 0.00 0.00 0.00 0.01 0.03 0.00 0.00 0.00 0.00 0.00 0.00 0.00 0.00 0.00 0.00 0.00 0.00 0.00 0.15 0.02 0.00 0.00 0.00 0.00 0.00 0.00 0.00 0.00 0.00 0.01 0.00 0.01 0.00 0.00 0.00 0.00 0.00 0.00 0.00 0.00 0.00 0.00 0.00 0.00 0.00 0.00 0.00 0.00 0.00 0.00 0.00 0.00 0.00 0.00 0.00 0.00 0.01 0.00 0.01 0.00 0.00 0.00 0.00 0.01 0.04 0.03 0.19 0.46 0.36 0.29 0.46 0.26 0.47 0.49 0.44 0.88 0.78 0.55 0.78 0.52 1.02 0.87 1.09 1.01 0.59 0.82 0.39
0.00 0.00 0.00 0.01 0.00 0.00 0.00 0.00 0.00 0.00 0.00 0.00 0.00 0.00 0.00 0.00 0.00 0.00 0.04 0.11 0.00 0.00 0.00 0.00 0.00 0.00 0.00 0.00 0.00 0.00 0.00 0.00 0.01 0.00 0.00 0.00 0.00 0.00 0.00 0.00 0.00 0.00 0.00 0.00 0.00 0.00 0.00 0.00 0.00 0.00 0.00 0.00 0.00 0.00 0.00 0.00 0.01 0.00 0.00 0.00 0.02 0.00 0.00 0.06 0.00 0.04 0.30 0.04 0.24 0.35 0.13 0.32 0.50 0.58 0.72 0.79 0.57 0.52 0.78 0.76 0.64 0.66 0.97 0.92 1.02 0.64 0.55 0.53
0.01 0.00 0.01 0.01 0.01 0.01 0.00 0.00 0.00 0.00 0.00 0.00 0.00 0.00 0.00 0.00 0.00 0.11 0.05 0.07 0.00 0.00 0.00 0.00 0.00 0.00 0.00 0.00 0.00 0.00 0.00 0.00 0.00 0.00 0.00 0.00 0.00 0.00 0.00 0.00 0.00 0.00 0.00 0.00 0.00 0.00 0.00 0.00 0.00 0.00 0.00 0.00 0.00 0.00 0.00 0.00 0.00 0.00 0.00 0.02 0.06 0.00 0.02 0.01 0.01 0.11 0.11 0.12 0.15 0.06 0.07 0.05 0.49 0.62 0.93 1.14 0.71 0.30 0.44 0.65 0.79 1.00 0.96 0.87 0.62 1.08 0.41 0.46
0.00 0.00 0.01 0.02 0.00 0.00 0.00 0.00 0.00 0.00 0.00 0.00 0.00 0.00 0.00 0.00 0.03 0.09 0.12 0.00 0.00 0.00 0.00 0.00 0.00 0.00 0.00 0.00 0.00 0.00 0.00 0.00 0.00 0.00 0.00 0.00 0.00 0.00 0.00 0.00 0.00 0.00 0.00 0.00 0.00 0.00 0.00 0.00 0.00 0.00 0.00 0.00 0.00 0.00 0.00 0.00 0.00 0.00 0.00 0.03 0.01 0.05 0.08 0.59 0.78 0.56 0.19 0.10 0.05 0.06 0.01 0.02 0.39 0.84 0.45 0.46 0.40 0.45 0.41 0.28 0.44 0.58 0.58 0.54 0.84 1.46 0.39 0.39
0.00 0.00 0.00 0.01 0.00 0.00 0.00 0.00 0.00 0.00 0.00 0.00 0.00 0.00 0.00 0.24 0.10 0.07 0.02 0.00 0.04 0.00 0.03 0.00 0.00 0.00 0.00 0.00 0.00 0.00 0.00 0.00 0.00 0.00 0.00 0.00 0.00 0.00 0.00 0.04 0.00 0.00 0.00 0.00 0.01 0.00 0.00 0.00 0.00 0.00 0.00 0.00 0.00 0.00 0.00 0.00 0.00 0.00 0.00 0.02 0.07 0.53 0.30 0.44 0.42 0.30 0.20 0.15 0.15 0.01 0.02 0.26 0.13 0.41 0.56 0.39 0.37 0.49 0.52 0.43 0.29 0.30 0.31 0.22 0.46 0.56 0.39 0.29
0.00 0.00 0.00 0.00 0.00 0.00 0.00 0.00 0.00 0.00 0.00 0.00 0.00 0.00 0.02 0.10 0.29 0.08 0.04 0.00 0.03 0.00 0.00 0.00 0.00 0.00 0.00 0.00 0.00 0.00 0.00 0.00 0.00 0.00 0.00 0.00 0.00 0.00 0.00 0.00 0.00 0.00 0.07 0.03 0.00 0.00 0.00 0.00 0.00 0.00 0.00 0.00 0.00 0.00 0.01 0.00 0.00 0.01 0.02 0.04 0.04 0.09 0.46 0.06 0.10 0.06 0.06 0.06 0.03 0.07 0.04 0.09 0.31 0.45 0.42 0.42 0.30 0.39 0.37 0.32 0.22 0.34 0.20 0.17 0.32 0.67 0.65 0.44
0.00 0.00 0.00 0.00 0.00 0.00 0.00 0.00 0.00 0.00 0.00 0.00 0.00 0.01 0.04 0.03 0.08 0.00 0.00 0.00 0.00 0.00 0.00 0.00 0.00 0.00 0.00 0.03 0.00 0.00 0.00 0.00 0.00 0.00 0.00 0.01 0.00 0.02 0.00 0.00 0.00 0.00 0.00 0.00 0.00 0.00 0.00 0.00 0.00 0.00 0.00 0.00 0.00 0.00 0.00 0.02 0.00 0.03 0.04 0.01 0.01 0.02 0.07 0.09 0.07 0.12 0.12 0.08 0.05 0.02 0.08 0.41 0.23 2.04 0.52 0.24 0.35 0.60 0.62 0.60 0.24 0.12 0.23 0.09 0.16 0.16 0.38 0.69
0.00 0.00 0.00 0.00 0.00 0.00 0.00 0.00 0.00 0.00 0.00 0.00 0.00 0.12 0.15 0.09 0.05 0.02 0.03 0.00 0.00 0.00 0.00 0.00 0.00 0.00 0.02 0.00 0.00 0.00 0.00 0.01 0.00 0.00 0.01 0.02 0.05 0.01 0.01 0.00 0.00 0.00 0.00 0.00 0.00 0.00 0.00 0.00 0.00 0.00 0.00 0.00 0.00 0.00 0.00 0.01 0.00 0.00 0.01 0.00 0.02 0.01 0.00 0.07 0.09 0.04 0.10 0.20 0.11 0.25 0.26 0.41 0.80 0.27 0.61 0.27 0.15 0.37 0.42 0.78 0.48 0.21 0.23 0.23 0.16 0.11 0.11 0.17
0.00 0.00 0.00 0.00 0.00 0.00 0.00 0.00 0.00 0.00 0.00 0.00 0.03 0.09 0.19 0.00 0.04 0.00 0.00 0.00 0.00 0.01 0.00 0.00 0.00 0.00 0.00 0.01 0.00 0.01 0.00 0.01 0.00 0.02 0.02 0.01 0.00 0.00 0.00 0.00 0.00 0.00 0.00 0.00 0.01 0.14 0.00 0.02 0.00 0.00 0.00 0.00 0.00 0.00 0.00 0.00 0.09 0.13 0.02 0.03 0.03 0.00 0.00 0.01 0.03 0.01 0.06 0.08 0.11 0.08 0.08 0.26 0.23 0.42 0.33 0.90 0.57 0.47 0.32 0.47 0.68 0.41 0.57 0.49 0.22 0.70 0.35 0.31
0.00 0.00 0.00 0.00 0.00 0.00 0.00 0.00 0.00 0.00 0.00 0.02 0.10 0.17 0.02 0.00 0.00 0.00 0.00 0.00 0.00 0.00 0.00 0.01 0.01 0.01 0.01 0.01 0.01 0.01 0.03 0.00 0.00 0.01 0.09 0.01 0.02 0.00 0.00 0.00 0.00 0.00 0.00 0.00 0.00 0.00 0.00 0.01 0.00 0.00 0.00 0.00 0.00 0.00 0.00 0.00 0.00 0.01 0.03 0.14 0.01 0.00 0.00 0.01 0.11 0.14 0.09 0.14 0.27 0.06 0.39 0.58 0.27 1.23 0.29 0.53 0.79 0.81 0.45 1.07 0.83 0.43 0.56 0.69 0.73 0.19 0.28 0.63
0.00 0.00 0.00 0.00 0.00 0.00 0.00 0.00 0.00 0.00 0.00 0.07 0.08 0.01 0.00 0.01 0.00 0.00 0.00 0.00 0.00 0.00 0.02 0.06 0.00 0.00 0.02 0.00 0.00 0.00 0.00 0.02 0.03 0.01 0.14 0.00 0.07 0.01 0.00 0.00 0.00 0.00 0.00 0.00 0.01 0.03 0.00 0.02 0.00 0.00 0.00 0.00 0.00 0.00 0.00 0.00 0.00 0.00 0.01 0.01 0.02 0.22 0.08 0.04 0.00 0.08 0.13 0.15 0.24 0.08 0.21 0.30 0.25 0.67 0.52 0.42 0.49 0.41 0.67 0.40 0.58 0.49 0.55 0.79 0.87 1.14 0.92 0.82
0.00 0.00 0.00 0.00 0.00 0.00 0.00 0.00 0.00 0.00 0.06 0.17 0.12 0.05 0.02 0.01 0.00 0.00 0.00 0.00 0.00 0.00 0.05 0.05 0.02 0.00 0.00 0.01 0.00 0.00 0.01 0.02 0.00 0.01 0.08 0.01 0.10 0.00 0.00 0.00 0.00 0.00 0.00 0.00 0.00 0.00 0.00 0.01 0.02 0.00 0.00 0.00 0.00 0.00 0.01 0.00 0.00 0.00 0.00 0.04 0.00 0.01 0.05 0.21 0.09 0.32 0.02 0.22 0.04 0.44 0.42 0.75 0.36 0.71 0.33 0.86 0.48 0.60 0.34 0.31 0.45 0.42 0.63 0.45 0.87 0.73 0.59 0.50
0.00 0.00 0.00 0.00 0.00 0.00 0.00 0.00 0.00 0.01 0.04 0.22 0.09 0.07 0.01 0.01 0.00 0.00 0.00 0.00 0.00 0.00 0.01 0.02 0.00 0.01 0.02 0.00 0.00 0.01 0.01 0.01 0.02 0.03 0.00 0.01 0.00 0.00 0.00 0.00 0.00 0.00 0.00 0.00 0.00 0.00 0.00 0.00 0.02 0.01 0.00 0.00 0.02 0.00 0.01 0.00 0.03 0.04 0.01 0.03 0.03 0.01 0.06 0.03 0.04 0.04 0.15 0.24 0.12 0.28 0.63 0.94 0.88 1.29 1.10 0.98 0.92 0.98 0.90 0.45 0.58 0.37 0.49 0.52 0.66 0.90 0.49 0.34
0.00 0.00 0.00 0.00 0.00 0.00 0.00 0.00 0.03 0.03 0.09 0.12 0.01 0.04 0.00 0.01 0.00 0.00 0.00 0.00 0.01 0.00 0.00 0.00 0.00 0.03 0.02 0.00 0.00 0.00 0.01 0.01 0.02 0.03 0.01 0.01 0.00 0.01 0.00 0.00 0.00 0.01 0.00 0.00 0.00 0.00 0.01 0.00 0.03 0.02 0.00 0.03 0.01 0.00 0.00 0.00 0.00 0.06 0.12 0.25 0.06 0.10 0.15 0.08 0.32 0.01 0.03 0.03 0.03 0.08 0.38 0.69 0.67 0.37 0.79 0.66 0.90 0.93 0.46 0.42 0.43 0.45 0.37 0.55 0.60 0.87 0.76 0.50
0.00 0.02 0.00 0.00 0.00 0.00 0.00 0.03 0.02 0.00 0.02 0.05 0.11 0.01 0.01 0.01 0.02 0.02 0.01 0.01 0.02 0.02 0.01 0.00 0.00 0.00 0.00 0.02 0.01 0.00 0.00 0.01 0.01 0.02 0.02 0.03 0.03 0.01 0.00 0.00 0.00 0.00 0.00 0.01 0.00 0.00 0.00 0.00 0.00 0.02 0.01 0.02 0.00 0.00 0.00 0.00 0.00 0.00 0.05 0.16 0.11 0.13 0.05 0.09 0.06 0.25 0.01 0.10 0.03 0.23 0.17 1.09 0.19 0.52 0.47 0.42 0.41 0.76 0.47 0.40 0.26 0.22 0.52 0.37 0.68 0.60 0.42 0.85
0.00 0.00 0.00 0.00 0.00 0.00 0.00 0.04 0.01 0.02 0.02 0.03 0.00 0.05 0.01 0.01 0.02 0.03 0.04 0.04 0.06 0.05 0.04 0.02 0.02 0.02 0.01 0.01 0.00 0.03 0.02 0.01 0.02 0.03 0.02 0.03 0.06 0.02 0.01 0.00 0.00 0.00 0.00 0.00 0.00 0.00 0.00 0.01 0.02 0.00 0.00 0.00 0.00 0.00 0.00 0.00 0.00 0.05 0.01 0.00 0.01 0.03 0.07 0.12 0.21 0.21 0.15 0.18 0.08 0.11 0.19 0.93 0.60 0.39 0.60 0.40 0.45 0.43 0.57 0.73 0.60 0.52 0.47 0.36 0.23 0.44 0.42 0.49
0.00 0.00 0.00 0.00 0.00 0.00 0.01 0.05 0.02 0.01 0.02 0.01 0.02 0.03 0.01 0.03 0.02 0.05 0.08 0.08 0.03 0.01 0.05 0.03 0.02 0.06 0.08 0.01 0.00 0.04 0.00 0.12 0.02 0.03 0.03 0.04 0.06 0.02 0.02 0.01 0.00 0.01 0.01 0.00 0.01 0.00 0.05 0.10 0.01 0.07 0.05 0.08 0.03 0.00 0.01 0.00 0.00 0.07 0.06 0.15 0.02 0.00 0.01 0.01 0.00 0.04 0.08 0.08 0.13 0.10 0.34 0.94 0.92 0.50 0.41 0.56 0.32 0.29 0.36 0.53 0.66 0.47 0.34 0.23 0.42 0.49 0.70 0.76
0.02 0.00 0.00 0.00 0.00 0.00 0.01 0.03 0.04 0.04 0.01 0.04 0.02 0.02 0.05 0.07 0.06 0.03 0.03 0.07 0.06 0.08 0.04 0.11 0.11 0.04 0.01 0.02 0.01 0.00 0.00 0.08 0.10 0.03 0.04 0.06 0.04 0.03 0.02 0.02 0.01 0.01 0.01 0.00 0.00 0.00 0.02 0.06 0.05 0.14 0.08 0.28 0.33 0.37 0.37 0.29 0.06 0.10 0.07 0.05 0.04 0.02 0.07 0.05 0.07 0.08 0.02 0.06 0.03 0.14 0.59 0.44 0.43 0.31 0.19 0.36 0.49 0.22 0.43 0.54 0.56 0.71 0.40 0.31 0.42 0.41 0.60 0.79
0.01 0.07 0.00 0.00 0.00 0.04 0.02 0.01 0.02 0.02 0.06 0.04 0.01 0.02 0.02 0.07 0.09 0.09 0.05 0.05 0.02 0.08 0.08 0.13 0.05 0.02 0.07 0.03 0.04 0.03 0.03 0.03 0.04 0.21 0.09 0.11 0.06 0.05 0.04 0.03 0.03 0.02 0.02 0.01 0.01 0.01 0.02 0.03 0.03 0.02 0.14 0.19 0.24 0.23 0.02 0.01 0.00 0.03 0.08 0.02 0.09 0.04 0.03 0.01 0.03 0.10 0.11 0.14 0.15 0.34 0.27 0.35 0.38 0.30 0.16 0.28 0.80 0.41 0.38 0.46 0.40 0.28 0.71 0.33 0.17 0.43 0.82 0.98
0.14 0.06 0.00 0.05 0.03 0.05 0.01 0.03 0.07 0.06 0.09 0.06 0.07 0.04 0.05 0.03 0.05 0.09 0.12 0.09 0.13 0.05 0.05 0.11 0.15 0.08 0.11 0.06 0.10 0.11 0.07 0.09 0.05 0.06 0.21 0.14 0.11 0.10 0.05 0.04 0.05 0.03 0.05 0.03 0.02 0.00 0.00 0.03 0.01 0.02 0.09 0.01 0.03 0.07 0.01 0.00 0.00 0.00 0.00 0.02 0.00 0.01 0.02 0.02 0.08 0.10 0.11 0.11 0.09 0.27 0.21 0.22 0.37 0.31 0.40 0.37 0.33 0.60 0.59 0.48 0.50 0.30 0.67 0.84 0.51 0.60 0.67 1.09
0.20 0.09 0.03 0.29 0.15 0.06 0.02 0.06 0.05 0.09 0.06 0.04 0.05 0.12 0.06 0.03 0.05 0.09 0.08 0.10 0.17 0.21 0.16 0.13 0.10 0.14 0.15 0.17 0.08 0.10 0.16 0.16 0.08 0.26 0.10 0.08 0.07 0.10 0.11 0.09 0.07 0.10 0.07 0.04 0.02 0.01 0.03 0.12 0.10 0.01 0.02 0.01 0.02 0.11 0.03 0.03 0.02 0.07 0.00 0.00 0.00 0.00 0.05 0.02 0.01 0.02 0.04 0.10 0.35 0.28 0.18 0.17 0.46 0.46 0.60 0.71 0.53 0.78 0.72 0.62 0.63 0.76 0.73 1.28 0.76 0.92 1.25 1.38
0.11 0.11 0.03 0.07 0.25 0.08 0.13 0.12 0.03 0.09 0.05 0.07 0.12 0.07 0.04 0.04 0.04 0.05 0.07 0.06 0.07 0.35 0.18 0.15 0.11 0.13 0.16 0.17 0.12 0.17 0.12 0.18 0.29 0.13 0.13 0.14 0.10 0.11 0.16 0.14 0.10 0.09 0.12 0.08 0.06 0.05 0.01 0.06 0.13 0.02 0.08 0.01 0.02 0.01 0.01 0.13 0.14 0.05 0.03 0.01 0.01 0.01 0.01 0.01 0.04 0.05 0.13 0.12 0.12 0.16 0.22 0.27 0.58 0.78 0.67 0.58 0.69 0.84 1.29 0.78 0.39 0.55 1.15 1.40 1.85 1.22 1.53 1.59
0.20 0.34 0.85 0.14 0.12 0.12 0.05 0.07 0.08 0.12 0.08 0.18 0.16 0.09 0.40 0.19 0.08 0.04 0.03 0.03 0.10 0.12 0.32 0.11 0.08 0.13 0.13 0.16 0.22 0.15 0.12 0.10 0.17 0.19 0.14 0.08 0.08 0.08 0.12 0.14 0.22 0.22 0.15 0.22 0.08 0.11 0.01 0.32 0.01 0.04 0.13 0.11 0.02 0.02 0.03 0.02 0.08 0.10 0.12 0.04 0.01 0.02 0.00 0.01 0.01 0.11 0.18 0.31 0.17 0.21 0.20 0.32 0.37 0.37 0.52 1.08 0.87 0.66 0.74 0.96 0.94 0.78 0.85 1.53 1.91 2.50 1.22 0.93
0.37 0.51 0.72 0.79 0.43 0.12 0.25 0.09 0.11 0.16 0.09 0.04 0.08 0.19 0.06 0.12 0.16 0.11 0.08 0.23 0.14 0.24 0.20 0.13 0.10 0.09 0.13 0.16 0.16 0.15 0.11 0.07 0.03 0.03 0.04 0.04 0.15 0.06 0.13 0.25 0.15 0.18 0.20 0.18 0.12 0.16 0.02 0.14 0.00 0.02 0.06 0.15 0.07 0.07 0.06 0.09 0.02 0.23 0.18 0.15 0.15 0.04 0.04 0.08 0.13 0.37 0.18 0.46 0.40 0.38 0.34 0.51 0.94 0.59 0.48 0.96 0.49 0.27 0.42 0.56 1.23 1.05 0.95 1.94 1.79 1.12 1.92 2.26
0.53 0.63 0.61 1.10 0.67 0.15 0.16 0.07 0.09 0.11 0.11 0.10 0.22 0.15 0.19 0.17 0.10 0.22 0.29 0.27 0.32 0.39 0.16 0.13 0.20 0.13 0.10 0.12 0.19 0.16 0.12 0.04 0.02 0.00 0.02 0.02 0.01 0.01 0.03 0.06 0.07 0.10 0.18 0.20 0.17 0.17 0.12 0.14 0.08 0.10 0.08 0.13 0.10 0.15 0.23 0.09 0.06 0.10 0.10 0.10 0.16 0.12 0.25 0.25 0.10 0.08 0.19 0.21 0.67 0.71 0.88 0.52 0.60 0.72 0.48 0.56 0.46 0.21 0.36 0.46 1.06 1.92 1.74 1.80 1.93 1.33 1.28 1.69